Torna al catalogo

STARLINK-37785

AttivoComunicazioniSSO
NORAD 69345·PAYLOAD·🇺🇸 United States

Lanciato Jun 3, 2026 da Vandenberg Space Force Base

Loading…

Prossimi Passaggi (prossime 24 ore)

TLE

AggiornatoSource: CelesTrak SupGP

Epoca: Sep 15, 2026, 03:32 UTC

1 69345C 26122S   26258.14770833 -.00051515  00000+0 -15992-2 0  2580
2 69345  97.2826 286.8702 0001295  94.4335 158.8760 15.33464387    11

Traccia STARLINK-37785 in tempo reale con AllMySat

Download on the App Store